| time (UTC) | temp F | wind direction | speed MPH | gust MPH | rain 1hr in | rain 24hr in | rain mn in | humidity % | barometer mb |
| 20260905080509 | 0 | 205 | 0.0 | 2.0 | 0.00 | 0.00 | 0.00 | 1016.9 | |
| 20260905080004 | 0 | 217 | 0.0 | 1.0 | 0.00 | 0.00 | 0.00 | 1016.9 | |
| 20260905075457 | 0 | 211 | 0.0 | 1.0 | 0.00 | 0.00 | 0.00 | 1016.9 | |
| 20260905074956 | 0 | 138 | 3.0 | 3.0 | 0.00 | 0.00 | 0.00 | 1017.0 | |
| 20260905074452 | 0 | 221 | 0.0 | 2.0 | 0.00 | 0.00 | 0.00 | 1016.9 | |
| 20260905073948 | 0 | 209 | 1.0 | 2.0 | 0.00 | 0.00 | 0.00 | 1016.8 | |
| 20260905073442 | 0 | 168 | 0.0 | 2.0 | 0.00 | 0.00 | 0.00 | 1017.0 | |
| 20260905072938 | 0 | 204 | 1.0 | 3.0 | 0.00 | 0.00 | 0.00 | 1016.8 | |
| 20260905072432 | 0 | 217 | 1.0 | 2.0 | 0.00 | 0.00 | 0.00 | 1016.9 | |
| 20260905071928 | 0 | 156 | 2.0 | 3.0 | 0.00 | 0.00 | 0.00 | 1017.1 | |
| 20260905071426 | 0 | 202 | 1.0 | 2.0 | 0.00 | 0.00 | 0.00 | 1017.1 | |
| 20260905070924 | 0 | 209 | 0.0 | 1.0 | 0.00 | 0.00 | 0.00 | 1017.1 | |
| 20260905070421 | 0 | 195 | 0.0 | 2.0 | 0.00 | 0.00 | 0.00 | 1017.2 | |
| 20260905065920 | 0 | 173 | 0.0 | 2.0 | 0.00 | 0.00 | 0.00 | 1017.2 | |
| 20260905065419 | 0 | 212 | 0.0 | 2.0 | 0.00 | 0.00 | 0.00 | 1017.2 | |
| 20260905064914 | 0 | 284 | 0.0 | 0.0 | 0.00 | 0.00 | 0.00 | 1017.1 | |
| 20260905064409 | 0 | 164 | 0.0 | 1.0 | 0.00 | 0.00 | 0.00 | 1017.2 | |
| 20260905063909 | 0 | 236 | 1.0 | 2.0 | 0.00 | 0.00 | 0.00 | 1017.3 | |
| 20260905063404 | 0 | 213 | 0.0 | 2.0 | 0.00 | 0.00 | 0.00 | 1017.3 | |
| 20260905062900 | 0 | 218 | 1.0 | 3.0 | 0.00 | 0.00 | 0.00 | 1017.3 | |
| 20260905062354 | 0 | 187 | 0.0 | 2.0 | 0.00 | 0.00 | 0.00 | 1017.1 | |
| 20260905061849 | 0 | 230 | 0.0 | 3.0 | 0.00 | 0.00 | 0.00 | 1017.4 | |
| 20260905061343 | 0 | 171 | 2.0 | 5.0 | 0.00 | 0.00 | 0.00 | 1017.3 | |
| 20260905060838 | 0 | 198 | 1.0 | 4.0 | 0.00 | 0.00 | 0.00 | 1017.3 | |
| 20260905060335 | 0 | 181 | 1.0 | 2.0 | 0.00 | 0.00 | 0.00 | 1017.4 | |
| 20260905055834 | 0 | 180 | 0.0 | 2.0 | 0.00 | 0.00 | 0.00 | 1017.5 | |
| 20260905055329 | 0 | 152 | 2.0 | 2.0 | 0.00 | 0.00 | 0.00 | 1017.4 | |
| 20260905054828 | 0 | 204 | 1.0 | 2.0 | 0.00 | 0.00 | 0.00 | 1017.4 | |
| 20260905054325 | 0 | 189 | 2.0 | 5.0 | 0.00 | 0.00 | 0.00 | 1017.4 | |
| 20260905053824 | 0 | 205 | 1.0 | 4.0 | 0.00 | 0.00 | 0.00 | 1017.4 | |
| 20260905053319 | 0 | 216 | 0.0 | 2.0 | 0.00 | 0.00 | 0.00 | 1017.3 | |
| 20260905052814 | 0 | 182 | 3.0 | 5.0 | 0.00 | 0.00 | 0.00 | 1017.3 | |
| 20260905052313 | 0 | 157 | 0.0 | 3.0 | 0.00 | 0.00 | 0.00 | 1017.2 | |
| 20260905051808 | 0 | 232 | 2.0 | 3.0 | 0.00 | 0.00 | 0.00 | 1017.3 | |
| 20260905051304 | 0 | 215 | 0.0 | 2.0 | 0.00 | 0.00 | 0.00 | 1017.5 | |
| 20260905050801 | 0 | 178 | 2.0 | 3.0 | 0.00 | 0.00 | 0.00 | 1017.5 | |
| 20260905050257 | 0 | 180 | 1.0 | 2.0 | 0.00 | 0.00 | 0.00 | 1017.5 | |
| 20260905045751 | 0 | 162 | 0.0 | 2.0 | 0.00 | 0.01 | 0.01 | 1017.5 | |
| 20260905045247 | 0 | 174 | 1.0 | 3.0 | 0.00 | 0.01 | 0.01 | 1017.3 | |
| 20260905044742 | 0 | 193 | 1.0 | 3.0 | 0.00 | 0.01 | 0.01 | 1017.2 | |
| 20260905044237 | 0 | 181 | 1.0 | 3.0 | 0.00 | 0.01 | 0.01 | 1017.4 | |
| 20260905043735 | 0 | 200 | 1.0 | 2.0 | 0.00 | 0.01 | 0.01 | 1017.4 | |
| 20260905043236 | 0 | 152 | 2.0 | 3.0 | 0.00 | 0.01 | 0.01 | 1017.4 | |
| 20260905042731 | 0 | 158 | 1.0 | 3.0 | 0.00 | 0.01 | 0.01 | 1017.2 | |
| 20260905042230 | 0 | 206 | 0.0 | 1.0 | 0.00 | 0.01 | 0.01 | 1017.2 | |
| 20260905041726 | 0 | 206 | 0.0 | 3.0 | 0.00 | 0.01 | 0.01 | 1017.2 | |
| 20260905041221 | 0 | 189 | 1.0 | 3.0 | 0.00 | 0.01 | 0.01 | 1017.2 | |
| 20260905040716 | 0 | 134 | 0.0 | 3.0 | 0.00 | 0.01 | 0.01 | 1017.2 | |
| 20260905040215 | 0 | 184 | 1.0 | 2.0 | 0.00 | 0.01 | 0.01 | 1017.3 | |
| 20260905035709 | 0 | 215 | 1.0 | 2.0 | 0.00 | 0.01 | 0.01 | 1017.3 | |
| 20260905035206 | 0 | 138 | 2.0 | 3.0 | 0.00 | 0.01 | 0.01 | 1017.2 | |
| 20260905034702 | 0 | 230 | 0.0 | 0.0 | 0.00 | 0.01 | 0.01 | 1017.2 | |
| 20260905034201 | 0 | 214 | 0.0 | 2.0 | 0.00 | 0.01 | 0.01 | 1017.1 | |
| 20260905033700 | 0 | 164 | 0.0 | 2.0 | 0.00 | 0.01 | 0.01 | 1017.2 | |
| 20260905033156 | 0 | 176 | 1.0 | 2.0 | 0.00 | 0.01 | 0.01 | 1017.1 | |
| 20260905032656 | 0 | 141 | 0.0 | 2.0 | 0.00 | 0.01 | 0.01 | 1017.1 | |
| 20260905032156 | 0 | 141 | 3.0 | 4.0 | 0.00 | 0.01 | 0.01 | 1017.1 | |
| 20260905031652 | 0 | 173 | 0.0 | 1.0 | 0.00 | 0.01 | 0.01 | 1017.1 | |
| 20260905031147 | 0 | 173 | 0.0 | 1.0 | 0.00 | 0.01 | 0.01 | 1017.1 | |
| 20260905030642 | 0 | 178 | 1.0 | 3.0 | 0.00 | 0.01 | 0.01 | 1017.0 | |
| 20260905030137 | 0 | 229 | 0.0 | 0.0 | 0.00 | 0.01 | 0.01 | 1016.8 | |
| 20260905025632 | 0 | 185 | 0.0 | 2.0 | 0.00 | 0.01 | 0.01 | 1016.8 | |
| 20260905025128 | 0 | 167 | 1.0 | 2.0 | 0.00 | 0.01 | 0.01 | 1016.9 | |
| 20260905024623 | 0 | 186 | 1.0 | 3.0 | 0.00 | 0.01 | 0.01 | 1016.9 | |
| 20260905024119 | 0 | 218 | 0.0 | 3.0 | 0.00 | 0.01 | 0.01 | 1016.8 | |
| 20260905023614 | 0 | 148 | 1.0 | 5.0 | 0.00 | 0.01 | 0.01 | 1016.8 | |
| 20260905023108 | 0 | 161 | 1.0 | 4.0 | 0.00 | 0.01 | 0.01 | 1016.5 | |
| 20260905022607 | 0 | 143 | 1.0 | 3.0 | 0.00 | 0.01 | 0.01 | 1016.5 | |
| 20260905022103 | 0 | 164 | 1.0 | 2.0 | 0.00 | 0.01 | 0.01 | 1016.5 | |
| 20260905021602 | 0 | 188 | 1.0 | 5.0 | 0.00 | 0.01 | 0.01 | 1016.5 | |
| 20260905021058 | 0 | 187 | 2.0 | 5.0 | 0.00 | 0.01 | 0.01 | 1016.5 | |
| 20260905020557 | 0 | 192 | 2.0 | 5.0 | 0.00 | 0.01 | 0.01 | 1016.5 | |
| 20260905020053 | 0 | 220 | 2.0 | 3.0 | 0.00 | 0.01 | 0.01 | 1016.3 | |
| 20260905015550 | 0 | 166 | 2.0 | 4.0 | 0.00 | 0.01 | 0.01 | 1016.2 | |
| 20260905015045 | 0 | 173 | 2.0 | 3.0 | 0.00 | 0.01 | 0.01 | 1016.3 | |
| 20260905014540 | 0 | 180 | 2.0 | 3.0 | 0.00 | 0.01 | 0.01 | 1016.0 | |
| 20260905014036 | 0 | 169 | 1.0 | 3.0 | 0.00 | 0.01 | 0.01 | 1016.1 | |
| 20260905013532 | 0 | 199 | 3.0 | 5.0 | 0.00 | 0.01 | 0.01 | 1015.8 | |
| 20260905013028 | 0 | 174 | 2.0 | 3.0 | 0.00 | 0.01 | 0.01 | 1016.1 | |
| 20260905012521 | 0 | 246 | 0.0 | 2.0 | 0.00 | 0.01 | 0.01 | 1015.8 | |
| 20260905012019 | 0 | 142 | 2.0 | 2.0 | 0.00 | 0.01 | 0.01 | 1015.8 | |
| 20260905011515 | 0 | 142 | 2.0 | 2.0 | 0.00 | 0.01 | 0.01 | 1015.7 | |
| 20260905011010 | 0 | 183 | 2.0 | 3.0 | 0.00 | 0.01 | 0.01 | 1015.8 | |
| 20260905010509 | 0 | 128 | 3.0 | 7.0 | 0.00 | 0.01 | 0.01 | 1015.8 | |
| 20260905010006 | 0 | 176 | 1.0 | 2.0 | 0.00 | 0.01 | 0.01 | 1015.6 | |
| 20260905005501 | 0 | 176 | 1.0 | 2.0 | 0.00 | 0.01 | 0.01 | 1015.6 | |
| 20260905004956 | 0 | 187 | 0.0 | 2.0 | 0.00 | 0.01 | 0.01 | 1015.6 | |
| 20260905004451 | 0 | 179 | 2.0 | 2.0 | 0.00 | 0.01 | 0.01 | 1015.7 | |
| 20260905003946 | 0 | 196 | 2.0 | 3.0 | 0.00 | 0.01 | 0.01 | 1015.4 | |
| 20260905003442 | 0 | 174 | 3.0 | 8.0 | 0.00 | 0.01 | 0.01 | 1015.5 | |
| 20260905002937 | 0 | 162 | 1.0 | 4.0 | 0.00 | 0.01 | 0.01 | 1015.3 | |
| 20260905002432 | 0 | 197 | 2.0 | 3.0 | 0.00 | 0.01 | 0.01 | 1015.2 | |
| 20260905001931 | 0 | 197 | 2.0 | 3.0 | 0.00 | 0.01 | 0.01 | 1015.2 | |
| 20260905001427 | 0 | 197 | 2.0 | 3.0 | 0.00 | 0.01 | 0.01 | 1015.1 | |
| 20260905000921 | 0 | 197 | 2.0 | 3.0 | 0.00 | 0.01 | 0.01 | 1015.1 | |
| 20260905000417 | 0 | 197 | 2.0 | 3.0 | 0.00 | 0.01 | 0.01 | 1015.0 | |
| 20260904235912 | 0 | 158 | 3.0 | 6.0 | 0.00 | 0.01 | 0.01 | 1015.0 | |
| 20260904235408 | 0 | 158 | 3.0 | 6.0 | 0.00 | 0.01 | 0.01 | 1015.0 | |
| 20260904234902 | 0 | 172 | 2.0 | 5.0 | 0.00 | 0.01 | 0.01 | 1014.9 | |
| 20260904234356 | 0 | 217 | 2.0 | 5.0 | 0.00 | 0.01 | 0.01 | 1015.1 | |
| 20260904233852 | 0 | 217 | 2.0 | 5.0 | 0.00 | 0.01 | 0.01 | 1015.1 | |
| 20260904233348 | 0 | 217 | 2.0 | 5.0 | 0.00 | 0.01 | 0.01 | 1015.0 | |
| 20260904232844 | 0 | 158 | 2.0 | 7.0 | 0.00 | 0.01 | 0.01 | 1015.0 | |
| 20260904232341 | 0 | 173 | 2.0 | 7.0 | 0.00 | 0.01 | 0.01 | 1015.1 | |
| 20260904231836 | 0 | 173 | 2.0 | 7.0 | 0.00 | 0.01 | 0.01 | 1015.0 | |
| 20260904231331 | 0 | 173 | 2.0 | 7.0 | 0.00 | 0.01 | 0.01 | 1015.0 | |
| 20260904230826 | 0 | 188 | 4.0 | 12.0 | 0.00 | 0.01 | 0.01 | 1014.9 | |
| 20260904230325 | 0 | 247 | 2.0 | 3.0 | 0.00 | 0.01 | 0.01 | 1014.8 | |
| 20260904225820 | 0 | 209 | 1.0 | 2.0 | 0.00 | 0.01 | 0.01 | 1014.9 | |
| 20260904225318 | 0 | 209 | 1.0 | 2.0 | 0.00 | 0.01 | 0.01 | 1014.7 | |
| 20260904224818 | 0 | 209 | 1.0 | 2.0 | 0.00 | 0.01 | 0.01 | 1014.7 | |
| 20260904224314 | 0 | 209 | 1.0 | 2.0 | 0.00 | 0.01 | 0.01 | 1014.9 | |
| 20260904223812 | 0 | 183 | 5.0 | 7.0 | 0.00 | 0.01 | 0.01 | 1014.8 | |
| 20260904223307 | 0 | 183 | 5.0 | 7.0 | 0.00 | 0.01 | 0.01 | 1014.8 | |
| 20260904222804 | 0 | 198 | 2.0 | 3.0 | 0.00 | 0.01 | 0.01 | 1015.1 | |
| 20260904222259 | 0 | 198 | 2.0 | 3.0 | 0.00 | 0.01 | 0.01 | 1014.8 | |
| 20260904221753 | 0 | 198 | 2.0 | 3.0 | 0.00 | 0.01 | 0.01 | 1014.9 | |
| 20260904221247 | 0 | 167 | 2.0 | 4.0 | 0.00 | 0.01 | 0.01 | 1014.9 | |
| 20260904220743 | 0 | 144 | 5.0 | 7.0 | 0.00 | 0.01 | 0.01 | 1014.9 | |
| 20260904220242 | 0 | 144 | 5.0 | 7.0 | 0.00 | 0.01 | 0.01 | 1014.8 | |
| 20260904215737 | 0 | 144 | 5.0 | 7.0 | 0.00 | 0.01 | 0.01 | 1014.8 | |
| 20260904215233 | 0 | 144 | 5.0 | 7.0 | 0.00 | 0.01 | 0.01 | 1015.2 | |
| 20260904214727 | 0 | 144 | 5.0 | 7.0 | 0.00 | 0.01 | 0.01 | 1015.2 | |
| 20260904214218 | 0 | 215 | 3.0 | 3.0 | 0.00 | 0.01 | 0.01 | 1015.3 | |
| 20260904213716 | 0 | 215 | 3.0 | 3.0 | 0.00 | 0.01 | 0.01 | 1015.3 | |
| 20260904213213 | 0 | 227 | 2.0 | 5.0 | 0.00 | 0.01 | 0.01 | 1015.5 | |
| 20260904212713 | 0 | 227 | 2.0 | 5.0 | 0.00 | 0.01 | 0.01 | 1015.5 | |
| 20260904212208 | 0 | 227 | 2.0 | 5.0 | 0.00 | 0.01 | 0.01 | 1015.6 | |
| 20260904211707 | 0 | 227 | 2.0 | 5.0 | 0.00 | 0.01 | 0.01 | 1015.7 | |
| 20260904211203 | 0 | 227 | 2.0 | 5.0 | 0.00 | 0.01 | 0.01 | 1015.5 | |
| 20260904210657 | 0 | 235 | 3.0 | 4.0 | 0.00 | 0.01 | 0.01 | 1015.7 | |
| 20260904210152 | 0 | 235 | 3.0 | 4.0 | 0.00 | 0.01 | 0.01 | 1015.8 | |
| 20260904205648 | 0 | 209 | 3.0 | 5.0 | 0.00 | 0.01 | 0.01 | 1015.8 | |
| 20260904205144 | 0 | 157 | 3.0 | 5.0 | 0.00 | 0.01 | 0.01 | 1015.8 | |
| 20260904204640 | 0 | 227 | 3.0 | 4.0 | 0.00 | 0.01 | 0.01 | 1015.7 | |
| 20260904204136 | 0 | 224 | 3.0 | 4.0 | 0.00 | 0.01 | 0.01 | 1015.9 | |
| 20260904203632 | 0 | 167 | 4.0 | 6.0 | 0.00 | 0.01 | 0.01 | 1015.9 | |
| 20260904203128 | 0 | 212 | 3.0 | 4.0 | 0.00 | 0.01 | 0.01 | 1016.1 | |
| 20260904202624 | 0 | 212 | 3.0 | 4.0 | 0.00 | 0.01 | 0.01 | 1016.1 | |
| 20260904202120 | 0 | 212 | 3.0 | 4.0 | 0.00 | 0.01 | 0.01 | 1016.2 | |
| 20260904201620 | 0 | 212 | 3.0 | 5.0 | 0.00 | 0.01 | 0.01 | 1016.2 | |
| 20260904201115 | 0 | 152 | 4.0 | 8.0 | 0.00 | 0.01 | 0.01 | 1016.2 | |
| 20260904200609 | 0 | 229 | 3.0 | 5.0 | 0.00 | 0.01 | 0.01 | 1016.6 | |
| 20260904200104 | 0 | 227 | 3.0 | 3.0 | 0.00 | 0.01 | 0.01 | 1016.4 | |
| 20260904195603 | 0 | 213 | 3.0 | 4.0 | 0.00 | 0.01 | 0.01 | 1016.4 | |
| 20260904195101 | 0 | 235 | 3.0 | 4.0 | 0.00 | 0.01 | 0.01 | 1016.5 | |
| 20260904194556 | 0 | 212 | 2.0 | 4.0 | 0.00 | 0.01 | 0.01 | 1016.5 | |
| 20260904194051 | 0 | 212 | 2.0 | 4.0 | 0.00 | 0.01 | 0.01 | 1016.6 | |
| 20260904193546 | 0 | 236 | 2.0 | 5.0 | 0.00 | 0.01 | 0.01 | 1016.8 | |
| 20260904193043 | 0 | 260 | 2.0 | 3.0 | 0.00 | 0.01 | 0.01 | 1016.8 | |
| 20260904192542 | 0 | 160 | 5.0 | 6.0 | 0.00 | 0.01 | 0.01 | 1016.8 | |
| 20260904192038 | 0 | 221 | 2.0 | 3.0 | 0.00 | 0.01 | 0.01 | 1016.8 | |
| 20260904191535 | 0 | 214 | 2.0 | 2.0 | 0.00 | 0.01 | 0.01 | 1016.8 | |
| 20260904191031 | 0 | 208 | 2.0 | 3.0 | 0.00 | 0.01 | 0.01 | 1017.0 | |
| 20260904190526 | 0 | 185 | 4.0 | 6.0 | 0.00 | 0.01 | 0.01 | 1017.3 | |
| 20260904190022 | 0 | 191 | 3.0 | 6.0 | 0.00 | 0.01 | 0.01 | 1017.2 | |
| 20260904185518 | 0 | 177 | 4.0 | 5.0 | 0.00 | 0.01 | 0.01 | 1017.2 | |
| 20260904185012 | 0 | 177 | 4.0 | 5.0 | 0.00 | 0.01 | 0.01 | 1017.3 | |
| 20260904184507 | 0 | 157 | 4.0 | 6.0 | 0.00 | 0.01 | 0.01 | 1017.5 | |
| 20260904184002 | 0 | 157 | 4.0 | 6.0 | 0.00 | 0.01 | 0.01 | 1017.3 | |
| 20260904183457 | 0 | 190 | 3.0 | 5.0 | 0.00 | 0.01 | 0.01 | 1017.4 | |
| 20260904182952 | 0 | 224 | 2.0 | 3.0 | 0.00 | 0.01 | 0.01 | 1017.3 | |
| 20260904182448 | 0 | 224 | 2.0 | 3.0 | 0.00 | 0.01 | 0.01 | 1017.4 | |
| 20260904181947 | 0 | 211 | 2.0 | 4.0 | 0.00 | 0.01 | 0.01 | 1017.5 | |
| 20260904181443 | 0 | 211 | 2.0 | 4.0 | 0.00 | 0.01 | 0.01 | 1017.5 | |
| 20260904180938 | 0 | 158 | 2.0 | 4.0 | 0.00 | 0.01 | 0.01 | 1017.5 | |
| 20260904180433 | 0 | 211 | 2.0 | 3.0 | 0.00 | 0.01 | 0.01 | 1017.8 | |
| 20260904175932 | 0 | 209 | 2.0 | 3.0 | 0.00 | 0.01 | 0.01 | 1017.9 | |
| 20260904175432 | 0 | 146 | 6.0 | 6.0 | 0.00 | 0.01 | 0.01 | 1018.0 | |
| 20260904174926 | 0 | 260 | 0.0 | 2.0 | 0.00 | 0.01 | 0.01 | 1017.9 | |
| 20260904174421 | 0 | 260 | 0.0 | 2.0 | 0.00 | 0.01 | 0.01 | 1018.1 | |
| 20260904173918 | 0 | 42 | 0.0 | 3.0 | 0.00 | 0.01 | 0.01 | 1018.1 | |
| 20260904173413 | 0 | 196 | 2.0 | 3.0 | 0.00 | 0.01 | 0.01 | 1018.1 | |
| 20260904172908 | 0 | 177 | 2.0 | 2.0 | 0.00 | 0.01 | 0.01 | 1018.1 | |
| 20260904172402 | 0 | 136 | 4.0 | 7.0 | 0.00 | 0.01 | 0.01 | 1018.2 | |
| 20260904171857 | 0 | 178 | 3.0 | 7.0 | 0.00 | 0.01 | 0.01 | 1018.1 | |
| 20260904171352 | 0 | 208 | 1.0 | 2.0 | 0.00 | 0.01 | 0.01 | 1018.3 | |
| 20260904170849 | 0 | 162 | 5.0 | 5.0 | 0.00 | 0.01 | 0.01 | 1018.3 | |
| 20260904170344 | 0 | 162 | 5.0 | 5.0 | 0.00 | 0.01 | 0.01 | 1018.3 | |
| 20260904165838 | 0 | 273 | 2.0 | 3.0 | 0.00 | 0.01 | 0.01 | 1018.3 | |
| 20260904165337 | 0 | 218 | 3.0 | 7.0 | 0.00 | 0.01 | 0.01 | 1018.2 | |
| 20260904164827 | 0 | 190 | 2.0 | 7.0 | 0.00 | 0.01 | 0.01 | 1018.2 | |
| 20260904164326 | 0 | 141 | 4.0 | 5.0 | 0.00 | 0.01 | 0.01 | 1018.2 | |
| 20260904163824 | 0 | 182 | 4.0 | 6.0 | 0.00 | 0.01 | 0.01 | 1018.2 | |
| 20260904163323 | 0 | 204 | 2.0 | 5.0 | 0.00 | 0.01 | 0.01 | 1018.2 | |
| 20260904162822 | 0 | 208 | 2.0 | 3.0 | 0.00 | 0.01 | 0.01 | 1018.2 | |
| 20260904162318 | 0 | 208 | 2.0 | 3.0 | 0.00 | 0.01 | 0.01 | 1018.2 | |
| 20260904161814 | 0 | 212 | 2.0 | 3.0 | 0.00 | 0.01 | 0.01 | 1018.2 | |
| 20260904161314 | 0 | 212 | 2.0 | 3.0 | 0.00 | 0.01 | 0.01 | 1018.3 | |
| 20260904160809 | 0 | 227 | 2.0 | 3.0 | 0.00 | 0.01 | 0.01 | 1018.1 | |
| 20260904160304 | 0 | 227 | 2.0 | 3.0 | 0.00 | 0.01 | 0.01 | 1018.1 | |
| 20260904155758 | 0 | 227 | 2.0 | 3.0 | 0.00 | 0.01 | 0.01 | 1018.2 | |
| 20260904155259 | 0 | 227 | 2.0 | 3.0 | 0.00 | 0.01 | 0.01 | 1018.2 | |
| 20260904154757 | 0 | 227 | 2.0 | 3.0 | 0.00 | 0.01 | 0.01 | 1018.2 | |
| 20260904154252 | 0 | 227 | 2.0 | 3.0 | 0.00 | 0.01 | 0.01 | 1018.2 | |
| 20260904153748 | 0 | 221 | 2.0 | 4.0 | 0.00 | 0.01 | 0.01 | 1018.1 | |
| 20260904153243 | 0 | 236 | 2.0 | 3.0 | 0.00 | 0.01 | 0.01 | 1018.2 | |
| 20260904152739 | 0 | 200 | 3.0 | 4.0 | 0.00 | 0.01 | 0.01 | 1018.3 | |
| 20260904152234 | 0 | 200 | 3.0 | 4.0 | 0.00 | 0.01 | 0.01 | 1018.0 | |
| 20260904151729 | 0 | 200 | 3.0 | 4.0 | 0.00 | 0.01 | 0.01 | 1018.1 | |
| 20260904151228 | 0 | 238 | 3.0 | 4.0 | 0.05 | 0.01 | 0.01 | 1018.0 | |
| 20260904150724 | 0 | 245 | 2.0 | 3.0 | 0.05 | 0.01 | 0.01 | 1017.9 | |
| 20260904150219 | 0 | 247 | 2.0 | 4.0 | 0.00 | 0.00 | 0.00 | 1017.9 | |
| 20260904145717 | 0 | 247 | 2.0 | 4.0 | 0.00 | 0.00 | 0.00 | 1018.0 | |
| 20260904145213 | 0 | 247 | 2.0 | 4.0 | 0.00 | 0.00 | 0.00 | 1018.0 | |
| 20260904144708 | 0 | 247 | 2.0 | 4.0 | 0.00 | 0.00 | 0.00 | 1018.0 | |
| 20260904144204 | 0 | 216 | 3.0 | 3.0 | 0.00 | 0.00 | 0.00 | 1018.2 | |
| 20260904143659 | 0 | 216 | 3.0 | 3.0 | 0.00 | 0.00 | 0.00 | 1017.9 | |
| 20260904143156 | 0 | 216 | 3.0 | 3.0 | 0.00 | 0.00 | 0.00 | 1018.0 | |
| 20260904142652 | 0 | 216 | 3.0 | 3.0 | 0.00 | 0.00 | 0.00 | 1017.9 | |
| 20260904142148 | 0 | 216 | 3.0 | 3.0 | 0.00 | 0.00 | 0.00 | 1018.1 | |
| 20260904141642 | 0 | 224 | 1.0 | 2.0 | 0.00 | 0.00 | 0.00 | 1017.9 | |
| 20260904141138 | 0 | 224 | 1.0 | 2.0 | 0.00 | 0.00 | 0.00 | 1017.9 | |
| 20260904140633 | 0 | 224 | 1.0 | 2.0 | 0.00 | 0.00 | 0.00 | 1017.6 | |
| 20260904140127 | 0 | 224 | 1.0 | 2.0 | 0.00 | 0.00 | 0.00 | 1017.9 | |
| 20260904135621 | 0 | 225 | 3.0 | 4.0 | 0.00 | 0.00 | 0.00 | 1017.9 | |
| 20260904135117 | 0 | 225 | 3.0 | 4.0 | 0.00 | 0.00 | 0.00 | 1018.0 | |
| 20260904134613 | 0 | 255 | 2.0 | 3.0 | 0.00 | 0.00 | 0.00 | 1018.0 | |
| 20260904134112 | 0 | 255 | 2.0 | 3.0 | 0.00 | 0.00 | 0.00 | 1017.6 | |
| 20260904133607 | 0 | 249 | 0.0 | 1.0 | 0.00 | 0.00 | 0.00 | 1017.5 | |
| 20260904133103 | 0 | 220 | 2.0 | 3.0 | 0.00 | 0.00 | 0.00 | 1017.6 | |
| 20260904132602 | 0 | 231 | 1.0 | 2.0 | 0.00 | 0.00 | 0.00 | 1017.3 | |
| 20260904132057 | 0 | 231 | 1.0 | 2.0 | 0.00 | 0.00 | 0.00 | 1017.5 | |
| 20260904131551 | 0 | 231 | 1.0 | 2.0 | 0.00 | 0.00 | 0.00 | 1017.5 | |
| 20260904131047 | 0 | 231 | 1.0 | 2.0 | 0.00 | 0.00 | 0.00 | 1017.8 | |
| 20260904130546 | 0 | 231 | 2.0 | 2.0 | 0.00 | 0.00 | 0.00 | 1017.6 | |
| 20260904130041 | 0 | 244 | 1.0 | 2.0 | 0.00 | 0.00 | 0.00 | 1017.5 | |
| 20260904125538 | 0 | 230 | 0.0 | 1.0 | 0.00 | 0.00 | 0.00 | 1017.9 | |
| 20260904125032 | 0 | 227 | 1.0 | 1.0 | 0.00 | 0.00 | 0.00 | 1017.8 | |
| 20260904124528 | 0 | 242 | 0.0 | 1.0 | 0.00 | 0.00 | 0.00 | 1017.6 | |
| 20260904124023 | 0 | 253 | 1.0 | 2.0 | 0.00 | 0.00 | 0.00 | 1017.8 | |
| 20260904123523 | 0 | 220 | 0.0 | 1.0 | 0.00 | 0.00 | 0.00 | 1017.9 | |
| 20260904123018 | 0 | 220 | 0.0 | 1.0 | 0.00 | 0.00 | 0.00 | 1017.9 | |
| 20260904122513 | 0 | 236 | 1.0 | 2.0 | 0.00 | 0.00 | 0.00 | 1017.9 | |
| 20260904122008 | 0 | 175 | 2.0 | 2.0 | 0.00 | 0.00 | 0.00 | 1017.8 | |
| 20260904121503 | 0 | 259 | 0.0 | 2.0 | 0.00 | 0.00 | 0.00 | 1017.6 | |
| 20260904120959 | 0 | 187 | 1.0 | 2.0 | 0.00 | 0.00 | 0.00 | 1017.6 | |
| 20260904120455 | 0 | 171 | 2.0 | 2.0 | 0.00 | 0.00 | 0.00 | 1017.4 | |
| 20260904115949 | 0 | 180 | 1.0 | 2.0 | 0.00 | 0.00 | 0.00 | 1017.4 | |
| 20260904115446 | 0 | 170 | 3.0 | 3.0 | 0.00 | 0.00 | 0.00 | 1017.1 | |
| 20260904114945 | 0 | 125 | 3.0 | 4.0 | 0.00 | 0.00 | 0.00 | 1017.2 | |
| 20260904114440 | 0 | 176 | 1.0 | 3.0 | 0.00 | 0.00 | 0.00 | 1017.1 | |
| 20260904113936 | 0 | 202 | 2.0 | 3.0 | 0.00 | 0.00 | 0.00 | 1017.1 | |
| 20260904113434 | 0 | 133 | 0.0 | 3.0 | 0.00 | 0.00 | 0.00 | 1016.9 | |
| 20260904112928 | 0 | 138 | 5.0 | 6.0 | 0.00 | 0.00 | 0.00 | 1016.7 | |
| 20260904112424 | 0 | 147 | 1.0 | 3.0 | 0.00 | 0.00 | 0.00 | 1016.7 | |
| 20260904111920 | 0 | 213 | 0.0 | 2.0 | 0.00 | 0.00 | 0.00 | 1016.6 | |
| 20260904111415 | 0 | 178 | 2.0 | 3.0 | 0.00 | 0.00 | 0.00 | 1016.6 | |
| 20260904110911 | 0 | 106 | 3.0 | 4.0 | 0.00 | 0.00 | 0.00 | 1016.6 | |
| 20260904110409 | 0 | 188 | 1.0 | 2.0 | 0.00 | 0.00 | 0.00 | 1016.6 | |
| 20260904105905 | 0 | 184 | 2.0 | 4.0 | 0.00 | 0.00 | 0.00 | 1016.6 | |
| 20260904105400 | 0 | 165 | 2.0 | 5.0 | 0.00 | 0.00 | 0.00 | 1016.6 | |
| 20260904104855 | 0 | 202 | 0.0 | 1.0 | 0.00 | 0.00 | 0.00 | 1016.4 | |
| 20260904104350 | 0 | 147 | 2.0 | 3.0 | 0.00 | 0.00 | 0.00 | 1016.6 | |
| 20260904103847 | 0 | 207 | 2.0 | 5.0 | 0.00 | 0.00 | 0.00 | 1016.5 | |
| 20260904103347 | 0 | 168 | 1.0 | 4.0 | 0.00 | 0.00 | 0.00 | 1016.4 | |
| 20260904102843 | 0 | 217 | 0.0 | 2.0 | 0.00 | 0.00 | 0.00 | 1016.4 | |
| 20260904102338 | 0 | 269 | 0.0 | 4.0 | 0.00 | 0.00 | 0.00 | 1016.6 | |
| 20260904101834 | 0 | 161 | 2.0 | 3.0 | 0.00 | 0.00 | 0.00 | 1016.4 | |
| 20260904101330 | 0 | 217 | 0.0 | 1.0 | 0.00 | 0.00 | 0.00 | 1016.4 | |
| 20260904100825 | 0 | 209 | 0.0 | 3.0 | 0.00 | 0.00 | 0.00 | 1016.3 | |
| 20260904100321 | 0 | 161 | 3.0 | 7.0 | 0.00 | 0.00 | 0.00 | 1016.3 | |
| 20260904095816 | 0 | 206 | 2.0 | 3.0 | 0.00 | 0.00 | 0.00 | 1016.0 | |
| 20260904095310 | 0 | 214 | 1.0 | 3.0 | 0.00 | 0.00 | 0.00 | 1016.2 | |
| 20260904094806 | 0 | 215 | 1.0 | 4.0 | 0.00 | 0.00 | 0.00 | 1016.0 | |
| 20260904094300 | 0 | 158 | 1.0 | 3.0 | 0.00 | 0.00 | 0.00 | 1016.0 | |
| 20260904093756 | 0 | 197 | 2.0 | 3.0 | 0.00 | 0.00 | 0.00 | 1016.2 | |
| 20260904093251 | 0 | 227 | 2.0 | 3.0 | 0.00 | 0.00 | 0.00 | 1016.2 | |
| 20260904092746 | 0 | 180 | 1.0 | 4.0 | 0.00 | 0.00 | 0.00 | 1016.1 | |
| 20260904092243 | 0 | 192 | 2.0 | 5.0 | 0.00 | 0.00 | 0.00 | 1016.1 | |
| 20260904091739 | 0 | 209 | 0.0 | 3.0 | 0.00 | 0.00 | 0.00 | 1016.1 | |
| 20260904091233 | 0 | 176 | 3.0 | 4.0 | 0.00 | 0.00 | 0.00 | 1016.1 | |
| 20260904090729 | 0 | 220 | 2.0 | 4.0 | 0.00 | 0.00 | 0.00 | 1016.0 | |
| 20260904090225 | 0 | 117 | 2.0 | 3.0 | 0.00 | 0.00 | 0.00 | 1016.1 | |
| 20260904085725 | 0 | 196 | 2.0 | 3.0 | 0.00 | 0.00 | 0.00 | 1016.1 | |
| 20260904085220 | 0 | 238 | 2.0 | 3.0 | 0.00 | 0.00 | 0.00 | 1016.3 | |
| 20260904084714 | 0 | 195 | 3.0 | 4.0 | 0.00 | 0.00 | 0.00 | 1016.3 | |
| 20260904084211 | 0 | 191 | 0.0 | 2.0 | 0.00 | 0.00 | 0.00 | 1016.2 | |
| 20260904083707 | 0 | 190 | 0.0 | 3.0 | 0.00 | 0.00 | 0.00 | 1016.2 | |
| 20260904083204 | 0 | 217 | 2.0 | 3.0 | 0.00 | 0.00 | 0.00 | 1016.2 | |
| 20260904082703 | 0 | 219 | 2.0 | 4.0 | 0.00 | 0.00 | 0.00 | 1016.3 | |
| 20260904082158 | 0 | 187 | 1.0 | 3.0 | 0.00 | 0.00 | 0.00 | 1016.1 | |
| 20260904081654 | 0 | 136 | 2.0 | 4.0 | 0.00 | 0.00 | 0.00 | 1016.5 | |
| 20260904081149 | 0 | 185 | 2.0 | 4.0 | 0.00 | 0.00 | 0.00 | 1016.4 |